Portada
METAR-TAF:

METAR-TAF

Aeropuertos :

Ramsar, Irán

latitud: 36-54N, longitud: 050-40E, altitud: -23 m

Observación

El informe se hizo hace 32 minutos, a las 16:00 UTC
Viento 2 kt del sur-suroeste
Temperatura 9°C
Humedad 87%
Presión 1006 hPa
Visibilidad 10 km o más
sin nubes por debajo de 1500 m y sin presencia de cumulonimbus.

METAR: OINR 181600Z 21002KT CAVOK 09/07 Q1006

Hora: 20:02 (16:32 UTC)


TAF: falta

Observaciones y pronósticos meteorológicos de más de 4000 aeropuertos (mensajes METAR y TAF).

Los puntos amarillos y rojos representan las estaciones disponibles.

Ponga el ratón en el punto deseado para ver el nombre de la estación.

Haga clic para ver las observaciones y los pronósticos meteorológicos.

Para cambiar el mapa : haga clic en los botones verdes con una cruz de color negro para hacer un zoom, en el botón verde con un guión para alejar o en las flechas verdes para mapas adyacentes.


METAR-TAF: